Zurück zum Katalog

SCOUT G-1 DEB

AktivPO
NORAD 17164·DEBRIS·🇺🇸 United States

Gestartet Aug 3, 1985 von Vandenberg Space Force Base

Loading…

Nächste Überflüge (nächste 24 Stunden)

TLE

AktuellSource: Space-Track

Epoche: Sep 14, 2026, 07:34 UTC

1 17164U 85066G   26257.31550844  .00000189  00000-0  32885-3 0  9993
2 17164  89.3942 207.9300 0200870 304.3483 211.9592 13.33308499998175

Verfolge SCOUT G-1 DEB in Echtzeit mit AllMySat

Download on the App Store